SCP
0 0 0 -0 -0 -0 -0 -0 0 0 0 0 0 0 0 -0 -0 0 -0 -0 -0 -0 -0 -0 -0 -0 -0 -0 0 0 0 -0 0 0 0 0 0 -0 -0 0 0 0 0 -0 -0
0 0 0 0 0 0 0 0 0 0 0 -0 -0 0 0 -0 -0 -0 -0 0 -0 -0 -0 -0 -0 -0 -0 -0 -0 -0 0 -0 -0 -0 -0 0 0 0 -0 0 -0 -0 -0 -0 -0
-0 0 0 0 0 0 0 0 0 0 0 0 0 -0 0 -0 -0 -0 -0 -0 -0 -0 -0 -0 -0 -0 -0 -0 0 0 -0 -0 -0 -0 0 0 0 0 0 0 -0 -0 -0 -0 -0
-0 -0 -0 -0 -0 -0 0 0 0 0 0 0 0 -0 0 -0 0 -0 -0 -0 -0 -0 -0 -0 -0 -0 -0 -0 -0 0 -0 -0 -0 -0 0 0 0 0 0 0 0 -0 -0 -0 -0
-0 -0 -0 -0 -0 -0 -0 -0 -0 -0 -0 -0 -0 -0 0 -0 -0 0 0 -0 -0 -0 -0 -0 -0 -0 -0 0 -0 0 0 -0 -0 -0 -0 0 0 0 0 0 0 -0 -0 -0 -0
-0 -0 -0 -0 -0 -0 -0 -0 -0 -0 -0 -0 0 0 -0 -0 -0 0 -0 -0 -0 -0 -0 -0 -0 -0 -0 0 -0 -0 0 0 -0 0 0 0 0 -0 0 0 0 -0 -0 -0 -0
-0 -0 -0 -0 -0 -0 -0 -0 -0 -0 -0 -0 -0 0 -0 -0 -0 -0 -0 -0 0 0 0 0 0 -0 -0 -0 0 0 0 0 0 0 0 0 -0 -0 -0 0 0 0 0 -0 -0
-0 -0 -0 -0 -0 -0 -0 -0 -0 -0 -0 -0 -0 -0 -0 0 0 -0 -0 -0 0 0 0 -0 0 -0 -0 0 -0 0 0 -0 0 -0 0 -0 0 -0 -0 -0 -0 0 0 -0 -0
-0 -0 -0 -0 -0 -0 -0 -0 -0 -0 -0 0 -0 -0 -0 0 -0 -0 -0 -0 -0 0 0 0 0 -0 -0 -0 -0 0 0 0 0 0 -0 -0 0 -0 -0 -0 -0 0 0 -0 -0
-0 -0 -0 -0 -0 -0 -0 -0 0 0 -0 0 -0 -0 0 0 -0 -0 0 -0 -0 -0 -0 -0 -0 -0 -0 -0 -0 0 0 0 0 0 -0 -0 -0 0 0 -0 -0 -0 0 -0 -0
-0 -0 -0 -0 0 0 0 0 0 0 0 0 0 0 0 0 0 0 0 -0 -0 -0 -0 -0 -0 -0 -0 -0 -0 0 0 0 0 0 -0 -0 -0 0 0 0 -0 -0 -0 0 -0
-0 -0 0 0 0 0 0 0 0 0 0 -0 -0 -0 0 0 0 -0 -0 -0 -0 -0 -0 -0 -0 -0 -0 0 0 0 -0 0 0 0 0 -0 0 0 0 -0 -0 -0 -0 -0 0
-0 0 0 0 0 0 -0 0 0 0 0 0 0 0 0 0 0 -0 -0 -0 -0 -0 -0 -0 -0 0 0 0 -0 -0 -0 -0 0 0 0 0 0 0 0 0 -0 -0 -0 -0 -0
-0 0 0 0 0 0 0 -0 0 0 0 0 0 0 -0 0 -0 -0 -0 -0 0 0 -0 0 0 0 0 0 0 -0 0 0 0 0 -0 0 0 0 0 0 0 -0 -0 -0 -0
0 0 -0 0 0 0 0 0 0 -0 -0 0 0 0 0 -0 0 -0 -0 -0 0 0 -0 -0 0 0 0 -0 0 0 -0 0 -0 -0 -0 -0 0 0 0 0 0 0 -0 -0 -0
-0 -0 0 0 0 0 0 -0 -0 0 0 0 0 -0 -0 -0 -0 0 -0 0 -0 0 0 0 0 0 0 -0 -0 -0 0 0 -0 -0 0 0 -0 0 0 0 0 0 0 -0 -0
-0 -0 -0 -0 0 0 -0 -0 0 -0 0 0 0 -0 -0 -0 0 0 -0 -0 -0 -0 -0 -0 -0 -0 0 -0 0 0 0 -0 -0 -0 0 -0 0 0 0 0 0 0 0 0 -0
-0 -0 -0 -0 0 -0 -0 0 0 0 0 0 0 0 0 -0 -0 0 -0 -0 -0 0 0 -0 -0 -0 -0 -0 0 0 0 0 0 0 0 0 0 0 0 0 0 0 0 0 0
-0 0 0 0 -0 -0 0 -0 0 0 0 0 0 0 0 0 0 0 -0 -0 -0 -0 0 0 0 0 0 -0 -0 0 -0 0 -0 0 0 -0 0 0 0 -0 -0 0 0 0 0
-0 0 0 0 -0 -0 -0 0 0 0 0 0 -0 0 -0 0 0 -0 0 0 -0 -0 -0 0 -0 0 0 0 -0 0 0 -0 0 0 0 0 0 0 0 0 0 0 0 0 0
-0 -0 0 -0 -0 -0 -0 0 0 0 0 0 -0 0 -0 -0 0 0 0 -0 0 0 0 0 0 0 0 0 0 0 -0 -0 0 0 0 0 0 0 0 0 0 0 0 0 0
0 0 0 -0 0 0 -0 0 0 0 0 0 0 0 0 -0 0 0 -0 0 0 0 0 0 0 0 -0 0 0 0 -0 -0 0 -0 0 0 0 0 0 0 0 0 0 0 0
-0 0 0 -0 0 0 0 0 0 0 0 0 0 0 0 0 0 0 -0 0 0 0 0 0 0 0 0 -0 0 0 0 -0 0 0 0 0 0 0 0 0 0 0 0 0 0
-0 0 0 0 0 0 0 0 0 0 0 0 0 0 0 0 0 0 0 0 0 0 0 0 0 0 -0 -0 0 0 0 -0 0 0 0 0 0 0 0 0 0 0 0 0 0
0 0 0 0 0 0 0 0 0 0 0 0 0 0 0 0 0 0 0 0 0 0 0 0 0 0 0 0 0 0 -0 -0 -0 -0 0 0 0 0 -0 0 0 0 0 0 0
0 0 0 0 0 0 0 0 0 0 0 0 0 0 0 0 0 0 0 0 0 0 0 0 0 0 0 0 0 0 0 0 0 0 0 0 0 0 0 0 0 0 0 0 0
0 0 0 0 0 0 0 0 0 0 0 0 0 0 0 0 0 0 0 0 0 0 0 0 0 0 0 0 0 0 0 0 0 0 0 0 0 0 0 0 0 0 0 0 0
Wind_Speed_500mb
11 9 7 5 5 5 5 6 7 9 11 12 11 11 12 15 18 19 17 18 26 17 14 12 13 10 11 13 5 9 13 7 10 10 3 10 14 4 4 9 12 8 6 43 42
11 9 7 6 6 6 6 5 5 7 8 10 9 10 11 13 18 29 25 29 23 19 19 18 15 11 30 6 5 23 6 17 16 16 15 10 7 11 14 15 21 22 31 39 42
11 10 8 7 6 6 6 5 5 6 6 7 7 7 8 8 11 20 33 23 21 21 20 17 10 13 24 11 7 7 16 13 22 10 5 14 14 14 15 2 23 27 34 38 35
11 11 10 9 8 7 7 7 7 7 6 6 5 6 7 14 10 7 26 27 24 25 18 18 17 25 17 4 15 5 14 17 10 8 4 7 5 13 7 9 11 26 33 34 31
13 13 12 11 10 9 8 9 9 9 8 6 4 4 6 16 25 10 25 30 31 24 23 21 20 18 23 4 8 10 10 5 7 5 7 10 6 11 12 3 15 26 31 31 28
16 15 15 14 12 11 9 9 10 10 10 7 5 4 7 29 9 10 18 33 30 25 23 22 16 13 21 12 14 17 8 1 2 3 6 13 14 16 25 13 20 27 29 29 28
19 19 17 16 14 13 11 10 10 10 11 9 7 7 19 12 9 16 26 32 29 25 21 20 18 20 18 13 6 5 18 10 13 1 5 10 19 23 28 22 19 25 28 29 29
22 21 20 18 16 14 12 12 11 11 12 11 8 8 18 15 12 16 28 30 29 23 20 12 19 23 21 7 15 16 18 9 17 1 9 11 1 18 27 34 34 34 32 31 33
24 22 21 19 17 15 14 12 12 13 14 12 5 9 22 15 24 24 25 31 29 25 20 15 19 31 27 22 30 19 14 14 6 8 9 8 5 20 27 33 32 30 31 35 35
26 23 22 20 17 15 13 11 9 12 15 13 17 16 28 25 29 29 27 21 29 26 23 24 25 29 26 27 22 9 13 4 7 11 7 16 15 18 24 30 34 41 40 38 42
29 26 22 20 17 15 11 4 7 10 30 32 11 18 7 17 31 31 29 25 29 30 32 37 28 31 31 31 24 21 15 20 11 12 13 15 14 11 28 30 32 43 59 47 48
31 27 23 20 16 16 17 17 14 9 20 46 38 25 7 21 27 34 31 30 33 32 38 34 33 34 32 26 19 18 28 24 5 6 12 19 22 20 23 31 38 42 44 51 38
33 29 22 19 15 18 21 17 14 11 17 30 36 41 31 24 35 40 41 40 27 30 36 37 33 18 33 29 23 30 30 25 17 23 27 23 34 24 27 30 34 41 47 50 49
35 30 19 12 6 6 18 18 13 7 12 29 25 24 41 27 35 24 41 40 30 30 32 28 33 29 22 27 28 33 25 15 15 25 22 16 14 22 24 25 29 37 45 48 57
35 27 19 17 12 10 10 11 9 6 12 16 21 15 28 36 10 37 33 40 31 26 21 31 22 31 34 31 22 29 25 9 21 27 30 34 16 12 14 21 28 39 43 52 57
32 21 10 16 22 14 11 9 6 14 9 16 18 22 30 47 27 26 35 37 28 30 27 34 30 17 24 27 35 30 31 21 28 27 25 30 24 5 12 14 9 5 32 46 58
21 6 7 24 3 15 14 14 13 19 7 15 14 25 31 36 41 25 32 34 29 22 31 34 38 38 24 30 33 31 28 23 24 24 20 13 4 18 27 12 12 2 11 27 52
6 3 10 16 8 16 15 18 17 8 5 9 7 13 27 32 40 27 33 34 38 36 28 20 26 42 32 33 19 28 36 25 22 18 18 11 9 10 5 11 17 19 12 23 42
7 9 3 4 15 16 25 18 10 12 12 12 10 22 28 30 29 30 34 34 36 36 35 26 16 14 18 31 33 31 32 35 38 30 26 28 18 14 18 21 22 19 17 26 36
11 8 2 8 13 14 18 27 7 9 14 18 27 10 24 32 30 32 31 27 36 35 34 33 27 17 10 18 38 38 22 24 22 25 30 26 23 13 14 5 14 10 17 24 28
2 12 5 6 10 22 18 5 4 5 16 15 21 17 20 29 32 35 26 32 22 31 34 32 31 35 19 21 30 27 31 30 30 19 22 24 13 20 14 5 4 12 4 26 23
9 4 8 11 20 20 18 6 7 22 8 20 14 27 28 28 24 24 36 32 13 15 22 30 30 32 42 31 33 38 37 37 26 32 26 16 21 3 15 7 5 8 9 9 20
14 5 6 11 12 12 6 17 12 16 14 11 16 14 26 22 28 26 35 3 7 15 11 25 31 31 36 34 37 35 33 30 34 32 28 21 17 11 10 15 18 4 15 15 18
12 6 12 14 14 20 12 20 12 13 22 12 21 25 24 28 31 32 36 19 2 24 16 17 36 33 33 36 23 19 30 42 38 30 32 28 33 22 8 12 16 25 20 23 23
11 9 9 4 9 17 11 19 19 18 13 14 17 17 25 23 32 31 29 33 37 21 24 29 40 45 49 53 26 45 44 39 41 38 31 38 34 13 37 13 12 23 25 29 29
15 13 14 11 6 14 8 8 16 17 11 26 19 22 23 23 30 35 42 27 18 36 17 25 37 41 50 51 51 53 44 45 42 39 34 40 45 37 51 15 12 10 25 35 36
18 11 13 5 7 12 8 12 16 12 18 13 20 20 24 20 30 36 42 37 39 37 34 29 32 37 45 44 50 51 49 47 45 43 37 41 39 26 39 32 21 21 28 39 43
Wind_Direction_500mb
22 24 19 4 338 323 298 279 261 257 265 267 264 255 242 232 230 238 234 232 222 214 196 192 214 234 250 256 267 250 330 25 83 125 201 200 218 328 287 160 45 65 38 133 151
4 5 358 350 337 323 311 278 255 243 249 262 265 258 253 242 241 248 234 223 221 204 196 197 207 224 256 245 193 269 283 32 21 132 217 135 270 187 268 172 115 102 111 136 150
348 346 342 337 326 313 305 277 251 240 241 257 265 259 248 240 266 249 224 219 208 192 191 216 275 260 275 255 74 339 15 7 37 23 224 190 174 190 235 145 140 135 137 145 155
337 334 331 325 316 306 294 271 253 241 234 248 263 266 245 198 244 201 199 199 193 178 207 224 241 248 275 278 60 238 54 12 33 86 106 164 159 202 252 204 89 141 150 153 163
335 329 326 319 312 301 286 266 253 245 233 238 252 277 222 229 256 262 188 187 187 182 208 215 243 259 279 7 252 32 78 16 42 108 170 131 250 347 159 171 151 147 156 163 168
338 328 324 318 310 297 280 267 256 245 234 237 248 262 229 246 196 235 198 193 189 197 212 224 255 333 284 332 315 24 17 269 197 121 187 210 251 235 159 160 163 159 166 170 170
335 328 320 312 305 298 285 268 254 245 230 231 247 273 252 260 197 206 191 194 190 204 220 231 256 268 329 246 82 118 260 202 188 296 315 248 215 222 174 171 188 178 175 168 171
332 325 317 308 299 290 278 264 253 242 228 228 246 260 271 194 200 185 185 193 198 209 227 251 242 264 274 359 237 235 241 248 120 278 140 247 173 206 173 185 189 203 184 178 176
332 324 317 307 296 285 276 265 251 240 229 230 263 237 245 217 190 185 181 191 200 203 217 246 237 248 244 251 237 180 264 42 141 159 289 225 147 181 178 198 209 205 200 192 186
331 324 318 309 295 278 273 265 259 245 227 236 243 247 224 212 191 189 188 195 198 205 219 227 228 240 233 248 254 173 303 209 334 111 212 272 244 178 186 212 211 192 199 197 199
329 323 317 305 293 271 255 249 247 227 215 215 233 232 127 191 179 187 188 196 205 221 221 205 229 237 239 233 278 329 294 280 274 88 278 260 265 252 182 206 218 188 193 207 202
325 319 316 300 284 253 229 213 320 334 282 227 234 236 210 186 189 198 193 204 207 225 219 237 227 251 251 263 301 272 264 257 212 185 255 270 274 242 203 206 211 208 212 200 205
320 314 310 296 281 248 220 225 261 304 259 215 216 222 209 213 225 199 198 211 224 230 228 233 232 215 251 256 246 251 261 271 312 312 268 245 256 229 208 205 206 213 212 212 202
317 311 302 289 320 217 233 245 232 291 268 160 197 221 205 207 233 220 202 217 235 247 234 234 251 252 247 262 248 259 236 255 294 274 287 238 288 195 204 188 203 212 213 213 196
316 306 287 224 194 192 161 168 205 230 269 151 133 138 191 201 130 198 198 211 242 226 252 238 232 246 252 242 241 257 271 292 284 278 267 254 227 126 202 196 202 199 208 214 209
319 308 266 205 204 175 183 196 179 232 247 149 146 188 200 205 205 148 195 218 236 253 251 258 275 272 270 262 238 256 274 237 251 254 262 251 239 258 190 202 136 182 201 202 208
325 297 216 156 171 196 184 185 226 249 84 151 199 177 201 195 220 179 196 204 221 222 232 226 236 230 228 253 225 215 225 232 230 226 252 114 300 299 297 258 265 319 234 204 200
22 72 150 182 203 175 180 222 257 20 306 56 266 190 201 186 213 198 200 218 222 247 282 248 235 202 204 237 212 219 229 246 252 276 312 149 250 251 329 224 217 214 237 189 197
99 62 51 230 189 182 214 225 293 21 11 296 225 244 201 200 224 203 220 222 229 215 257 293 214 99 238 207 248 203 219 255 281 281 269 269 252 307 242 211 236 214 160 191 198
114 152 93 149 170 187 240 260 344 310 310 264 270 212 237 202 215 244 217 222 238 232 221 257 269 254 193 224 220 241 251 229 229 259 261 256 263 234 154 306 6 309 167 189 192
114 208 164 162 175 217 247 265 23 188 308 288 281 285 270 285 215 224 231 244 211 247 220 241 254 271 169 217 248 203 245 252 278 297 301 283 301 76 148 181 292 329 160 170 192
285 256 170 163 226 227 264 343 22 274 250 272 272 276 288 293 274 261 263 253 17 252 250 235 253 244 248 231 206 239 215 224 238 236 248 284 286 71 168 205 32 329 147 150 184
305 29 187 213 269 221 166 271 280 288 268 294 279 289 297 282 280 267 275 270 51 282 294 272 238 255 261 261 228 216 233 249 246 243 271 283 291 64 152 192 204 249 162 171 186
297 233 153 226 284 293 323 272 271 177 282 276 288 300 275 269 266 266 278 285 171 284 9 295 268 256 259 264 47 295 262 247 242 243 252 242 259 292 179 238 220 160 177 173 178
351 46 351 333 99 327 307 299 285 278 194 292 280 253 282 296 288 274 254 267 257 226 246 253 254 266 270 275 252 199 229 265 251 254 271 275 278 328 307 287 262 171 172 175 175
4 342 337 306 286 278 189 293 304 306 319 288 277 291 326 288 289 295 299 303 300 283 238 273 270 265 270 272 269 271 262 251 253 260 250 263 279 276 288 269 272 246 166 185 181
15 346 308 120 285 273 23 349 323 335 283 291 312 300 285 320 331 305 302 293 284 284 285 286 282 281 265 262 264 257 257 267 267 265 259 262 246 254 277 270 238 230 181 192 184
Wind_Speed_850mb
11 9 7 5 5 5 5 6 7 9 11 12 11 11 12 15 18 19 17 18 26 17 14 12 13 10 11 13 5 9 13 7 10 10 3 10 14 4 4 9 12 8 6 43 42
11 9 7 6 6 6 6 5 5 7 8 10 9 10 11 13 18 29 25 29 23 19 19 18 15 11 30 6 5 23 6 17 16 16 15 10 7 11 14 15 21 22 31 39 42
11 10 8 7 6 6 6 5 5 6 6 7 7 7 8 8 11 20 33 23 21 21 20 17 10 13 24 11 7 7 16 13 22 10 5 14 14 14 15 2 23 27 34 38 35
11 11 10 9 8 7 7 7 7 7 6 6 5 6 7 14 10 7 26 27 24 25 18 18 17 25 17 4 15 5 14 17 10 8 4 7 5 13 7 9 11 26 33 34 31
13 13 12 11 10 9 8 9 9 9 8 6 4 4 6 16 25 10 25 30 31 24 23 21 20 18 23 4 8 10 10 5 7 5 7 10 6 11 12 3 15 26 31 31 28
16 15 15 14 12 11 9 9 10 10 10 7 5 4 7 29 9 10 18 33 30 25 23 22 16 13 21 12 14 17 8 1 2 3 6 13 14 16 25 13 20 27 29 29 28
19 19 17 16 14 13 11 10 10 10 11 9 7 7 19 12 9 16 26 32 29 25 21 20 18 20 18 13 6 5 18 10 13 1 5 10 19 23 28 22 19 25 28 29 29
22 21 20 18 16 14 12 12 11 11 12 11 8 8 18 15 12 16 28 30 29 23 20 12 19 23 21 7 15 16 18 9 17 1 9 11 1 18 27 34 34 34 32 31 33
24 22 21 19 17 15 14 12 12 13 14 12 5 9 22 15 24 24 25 31 29 25 20 15 19 31 27 22 30 19 14 14 6 8 9 8 5 20 27 33 32 30 31 35 35
26 23 22 20 17 15 13 11 9 12 15 13 17 16 28 25 29 29 27 21 29 26 23 24 25 29 26 27 22 9 13 4 7 11 7 16 15 18 24 30 34 41 40 38 42
29 26 22 20 17 15 11 4 7 10 30 32 11 18 7 17 31 31 29 25 29 30 32 37 28 31 31 31 24 21 15 20 11 12 13 15 14 11 28 30 32 43 59 47 48
31 27 23 20 16 16 17 17 14 9 20 46 38 25 7 21 27 34 31 30 33 32 38 34 33 34 32 26 19 18 28 24 5 6 12 19 22 20 23 31 38 42 44 51 38
33 29 22 19 15 18 21 17 14 11 17 30 36 41 31 24 35 40 41 40 27 30 36 37 33 18 33 29 23 30 30 25 17 23 27 23 34 24 27 30 34 41 47 50 49
35 30 19 12 6 6 18 18 13 7 12 29 25 24 41 27 35 24 41 40 30 30 32 28 33 29 22 27 28 33 25 15 15 25 22 16 14 22 24 25 29 37 45 48 57
35 27 19 17 12 10 10 11 9 6 12 16 21 15 28 36 10 37 33 40 31 26 21 31 22 31 34 31 22 29 25 9 21 27 30 34 16 12 14 21 28 39 43 52 57
32 21 10 16 22 14 11 9 6 14 9 16 18 22 30 47 27 26 35 37 28 30 27 34 30 17 24 27 35 30 31 21 28 27 25 30 24 5 12 14 9 5 32 46 58
21 6 7 24 3 15 14 14 13 19 7 15 14 25 31 36 41 25 32 34 29 22 31 34 38 38 24 30 33 31 28 23 24 24 20 13 4 18 27 12 12 2 11 27 52
6 3 10 16 8 16 15 18 17 8 5 9 7 13 27 32 40 27 33 34 38 36 28 20 26 42 32 33 19 28 36 25 22 18 18 11 9 10 5 11 17 19 12 23 42
7 9 3 4 15 16 25 18 10 12 12 12 10 22 28 30 29 30 34 34 36 36 35 26 16 14 18 31 33 31 32 35 38 30 26 28 18 14 18 21 22 19 17 26 36
11 8 2 8 13 14 18 27 7 9 14 18 27 10 24 32 30 32 31 27 36 35 34 33 27 17 10 18 38 38 22 24 22 25 30 26 23 13 14 5 14 10 17 24 28
2 12 5 6 10 22 18 5 4 5 16 15 21 17 20 29 32 35 26 32 22 31 34 32 31 35 19 21 30 27 31 30 30 19 22 24 13 20 14 5 4 12 4 26 23
9 4 8 11 20 20 18 6 7 22 8 20 14 27 28 28 24 24 36 32 13 15 22 30 30 32 42 31 33 38 37 37 26 32 26 16 21 3 15 7 5 8 9 9 20
14 5 6 11 12 12 6 17 12 16 14 11 16 14 26 22 28 26 35 3 7 15 11 25 31 31 36 34 37 35 33 30 34 32 28 21 17 11 10 15 18 4 15 15 18
12 6 12 14 14 20 12 20 12 13 22 12 21 25 24 28 31 32 36 19 2 24 16 17 36 33 33 36 23 19 30 42 38 30 32 28 33 22 8 12 16 25 20 23 23
11 9 9 4 9 17 11 19 19 18 13 14 17 17 25 23 32 31 29 33 37 21 24 29 40 45 49 53 26 45 44 39 41 38 31 38 34 13 37 13 12 23 25 29 29
15 13 14 11 6 14 8 8 16 17 11 26 19 22 23 23 30 35 42 27 18 36 17 25 37 41 50 51 51 53 44 45 42 39 34 40 45 37 51 15 12 10 25 35 36
18 11 13 5 7 12 8 12 16 12 18 13 20 20 24 20 30 36 42 37 39 37 34 29 32 37 45 44 50 51 49 47 45 43 37 41 39 26 39 32 21 21 28 39 43
Wind_Direction_850mb
22 24 19 4 338 323 298 279 261 257 265 267 264 255 242 232 230 238 234 232 222 214 196 192 214 234 250 256 267 250 330 25 83 125 201 200 218 328 287 160 45 65 38 133 151
4 5 358 350 337 323 311 278 255 243 249 262 265 258 253 242 241 248 234 223 221 204 196 197 207 224 256 245 193 269 283 32 21 132 217 135 270 187 268 172 115 102 111 136 150
348 346 342 337 326 313 305 277 251 240 241 257 265 259 248 240 266 249 224 219 208 192 191 216 275 260 275 255 74 339 15 7 37 23 224 190 174 190 235 145 140 135 137 145 155
337 334 331 325 316 306 294 271 253 241 234 248 263 266 245 198 244 201 199 199 193 178 207 224 241 248 275 278 60 238 54 12 33 86 106 164 159 202 252 204 89 141 150 153 163
335 329 326 319 312 301 286 266 253 245 233 238 252 277 222 229 256 262 188 187 187 182 208 215 243 259 279 7 252 32 78 16 42 108 170 131 250 347 159 171 151 147 156 163 168
338 328 324 318 310 297 280 267 256 245 234 237 248 262 229 246 196 235 198 193 189 197 212 224 255 333 284 332 315 24 17 269 197 121 187 210 251 235 159 160 163 159 166 170 170
335 328 320 312 305 298 285 268 254 245 230 231 247 273 252 260 197 206 191 194 190 204 220 231 256 268 329 246 82 118 260 202 188 296 315 248 215 222 174 171 188 178 175 168 171
332 325 317 308 299 290 278 264 253 242 228 228 246 260 271 194 200 185 185 193 198 209 227 251 242 264 274 359 237 235 241 248 120 278 140 247 173 206 173 185 189 203 184 178 176
332 324 317 307 296 285 276 265 251 240 229 230 263 237 245 217 190 185 181 191 200 203 217 246 237 248 244 251 237 180 264 42 141 159 289 225 147 181 178 198 209 205 200 192 186
331 324 318 309 295 278 273 265 259 245 227 236 243 247 224 212 191 189 188 195 198 205 219 227 228 240 233 248 254 173 303 209 334 111 212 272 244 178 186 212 211 192 199 197 199
329 323 317 305 293 271 255 249 247 227 215 215 233 232 127 191 179 187 188 196 205 221 221 205 229 237 239 233 278 329 294 280 274 88 278 260 265 252 182 206 218 188 193 207 202
325 319 316 300 284 253 229 213 320 334 282 227 234 236 210 186 189 198 193 204 207 225 219 237 227 251 251 263 301 272 264 257 212 185 255 270 274 242 203 206 211 208 212 200 205
320 314 310 296 281 248 220 225 261 304 259 215 216 222 209 213 225 199 198 211 224 230 228 233 232 215 251 256 246 251 261 271 312 312 268 245 256 229 208 205 206 213 212 212 202
317 311 302 289 320 217 233 245 232 291 268 160 197 221 205 207 233 220 202 217 235 247 234 234 251 252 247 262 248 259 236 255 294 274 287 238 288 195 204 188 203 212 213 213 196
316 306 287 224 194 192 161 168 205 230 269 151 133 138 191 201 130 198 198 211 242 226 252 238 232 246 252 242 241 257 271 292 284 278 267 254 227 126 202 196 202 199 208 214 209
319 308 266 205 204 175 183 196 179 232 247 149 146 188 200 205 205 148 195 218 236 253 251 258 275 272 270 262 238 256 274 237 251 254 262 251 239 258 190 202 136 182 201 202 208
325 297 216 156 171 196 184 185 226 249 84 151 199 177 201 195 220 179 196 204 221 222 232 226 236 230 228 253 225 215 225 232 230 226 252 114 300 299 297 258 265 319 234 204 200
22 72 150 182 203 175 180 222 257 20 306 56 266 190 201 186 213 198 200 218 222 247 282 248 235 202 204 237 212 219 229 246 252 276 312 149 250 251 329 224 217 214 237 189 197
99 62 51 230 189 182 214 225 293 21 11 296 225 244 201 200 224 203 220 222 229 215 257 293 214 99 238 207 248 203 219 255 281 281 269 269 252 307 242 211 236 214 160 191 198
114 152 93 149 170 187 240 260 344 310 310 264 270 212 237 202 215 244 217 222 238 232 221 257 269 254 193 224 220 241 251 229 229 259 261 256 263 234 154 306 6 309 167 189 192
114 208 164 162 175 217 247 265 23 188 308 288 281 285 270 285 215 224 231 244 211 247 220 241 254 271 169 217 248 203 245 252 278 297 301 283 301 76 148 181 292 329 160 170 192
285 256 170 163 226 227 264 343 22 274 250 272 272 276 288 293 274 261 263 253 17 252 250 235 253 244 248 231 206 239 215 224 238 236 248 284 286 71 168 205 32 329 147 150 184
305 29 187 213 269 221 166 271 280 288 268 294 279 289 297 282 280 267 275 270 51 282 294 272 238 255 261 261 228 216 233 249 246 243 271 283 291 64 152 192 204 249 162 171 186
297 233 153 226 284 293 323 272 271 177 282 276 288 300 275 269 266 266 278 285 171 284 9 295 268 256 259 264 47 295 262 247 242 243 252 242 259 292 179 238 220 160 177 173 178
351 46 351 333 99 327 307 299 285 278 194 292 280 253 282 296 288 274 254 267 257 226 246 253 254 266 270 275 252 199 229 265 251 254 271 275 278 328 307 287 262 171 172 175 175
4 342 337 306 286 278 189 293 304 306 319 288 277 291 326 288 289 295 299 303 300 283 238 273 270 265 270 272 269 271 262 251 253 260 250 263 279 276 288 269 272 246 166 185 181
15 346 308 120 285 273 23 349 323 335 283 291 312 300 285 320 331 305 302 293 284 284 285 286 282 281 265 262 264 257 257 267 267 265 259 262 246 254 277 270 238 230 181 192 184